TimeCDT,TemperatureF,Dew PointF,Humidity,Sea Level PressureIn,VisibilityMPH,Wind Direction,Wind SpeedMPH,Gust SpeedMPH,PrecipitationIn,Events,Conditions,WindDirDegrees,DateUTC
12:15 AM,32.0,26.6,80,30.36,10.0,Calm,Calm,-,N/A,,Clear,0,2012-10-27 05:15:00
12:35 AM,30.2,26.6,86,30.35,10.0,Calm,Calm,-,N/A,,Clear,0,2012-10-27 05:35:00
12:55 AM,28.4,26.6,93,30.35,10.0,Calm,Calm,-,N/A,,Clear,0,2012-10-27 05:55:00
1:15 AM,28.4,26.6,93,30.35,10.0,Calm,Calm,-,N/A,,Clear,0,2012-10-27 06:15:00
1:35 AM,28.4,26.6,93,30.35,10.0,Calm,Calm,-,N/A,,Clear,0,2012-10-27 06:35:00
1:55 AM,26.6,26.6,100,30.35,10.0,Calm,Calm,-,N/A,,Clear,0,2012-10-27 06:55:00
2:15 AM,26.6,24.8,93,30.35,10.0,Calm,Calm,-,N/A,,Clear,0,2012-10-27 07:15:00
2:35 AM,26.6,24.8,93,30.35,10.0,Calm,Calm,-,N/A,,Clear,0,2012-10-27 07:35:00
2:55 AM,26.6,24.8,93,30.35,7.0,Calm,Calm,-,N/A,,Clear,0,2012-10-27 07:55:00
3:35 AM,26.6,26.6,100,30.34,10.0,Calm,Calm,-,N/A,,Overcast,0,2012-10-27 08:35:00
3:55 AM,26.6,24.8,93,30.34,10.0,Calm,Calm,-,N/A,,Scattered Clouds,0,2012-10-27 08:55:00
4:15 AM,26.6,24.8,93,30.34,7.0,Calm,Calm,-,N/A,,Mostly Cloudy,0,2012-10-27 09:15:00
4:35 AM,26.6,26.6,100,30.35,10.0,Calm,Calm,-,N/A,,Overcast,0,2012-10-27 09:35:00
4:55 AM,26.6,26.6,100,30.35,7.0,Calm,Calm,-,N/A,,Overcast,0,2012-10-27 09:55:00
5:15 AM,26.6,24.8,93,30.35,7.0,Calm,Calm,-,N/A,,Mostly Cloudy,0,2012-10-27 10:15:00
5:35 AM,26.6,24.8,93,30.35,7.0,Calm,Calm,-,N/A,,Mostly Cloudy,0,2012-10-27 10:35:00
5:55 AM,26.6,24.8,93,30.35,7.0,Calm,Calm,-,N/A,,Scattered Clouds,0,2012-10-27 10:55:00
6:15 AM,26.6,24.8,93,30.36,7.0,Calm,Calm,-,N/A,,Clear,0,2012-10-27 11:15:00
6:35 AM,24.8,24.8,100,30.36,7.0,Calm,Calm,-,N/A,,Clear,0,2012-10-27 11:35:00
6:55 AM,24.8,23.0,93,30.36,7.0,Calm,Calm,-,N/A,,Clear,0,2012-10-27 11:55:00
7:15 AM,24.8,23.0,93,30.37,7.0,NNW,3.5,-,N/A,,Clear,330,2012-10-27 12:15:00
7:35 AM,24.8,23.0,93,30.37,7.0,Calm,Calm,-,N/A,,Clear,0,2012-10-27 12:35:00
7:55 AM,24.8,23.0,93,30.37,7.0,Calm,Calm,-,N/A,,Clear,0,2012-10-27 12:55:00
8:15 AM,24.8,23.0,93,30.37,7.0,Calm,Calm,-,N/A,,Clear,0,2012-10-27 13:15:00
8:35 AM,26.6,24.8,93,30.38,7.0,Calm,Calm,-,N/A,,Clear,0,2012-10-27 13:35:00
9:15 AM,30.2,28.4,93,30.39,10.0,Calm,Calm,-,N/A,,Clear,0,2012-10-27 14:15:00
9:34 AM,33.8,28.4,81,30.39,10.0,Calm,Calm,-,N/A,,Clear,0,2012-10-27 14:34:00
10:15 AM,37.4,28.4,70,30.39,10.0,West,4.6,-,N/A,,Clear,280,2012-10-27 15:15:00
10:34 AM,37.4,26.6,65,30.38,10.0,Calm,Calm,-,N/A,,Clear,0,2012-10-27 15:34:00
10:55 AM,39.2,26.6,61,30.38,10.0,Calm,Calm,-,N/A,,Clear,0,2012-10-27 15:55:00
11:15 AM,39.2,24.8,56,30.38,10.0,Calm,Calm,-,N/A,,Clear,0,2012-10-27 16:15:00
11:35 AM,42.8,24.8,49,30.38,10.0,WSW,4.6,-,N/A,,Clear,250,2012-10-27 16:35:00
11:55 AM,42.8,21.2,42,30.38,10.0,WNW,6.9,-,N/A,,Clear,290,2012-10-27 16:55:00
12:15 PM,42.8,17.6,36,30.37,10.0,WSW,8.1,-,N/A,,Scattered Clouds,250,2012-10-27 17:15:00
12:35 PM,42.8,17.6,36,30.37,10.0,West,9.2,-,N/A,,Scattered Clouds,260,2012-10-27 17:35:00
12:55 PM,42.8,17.6,36,30.36,10.0,SW,8.1,-,N/A,,Clear,230,2012-10-27 17:55:00
1:15 PM,42.8,19.4,39,30.35,10.0,WNW,10.4,-,N/A,,Scattered Clouds,300,2012-10-27 18:15:00
1:35 PM,42.8,17.6,36,30.35,10.0,SW,5.8,-,N/A,,Clear,220,2012-10-27 18:35:00
1:55 PM,44.6,17.6,34,30.35,10.0,WNW,8.1,-,N/A,,Clear,290,2012-10-27 18:55:00
2:15 PM,44.6,17.6,34,30.34,10.0,West,5.8,-,N/A,,Clear,270,2012-10-27 19:15:00
2:35 PM,44.6,17.6,34,30.33,10.0,Calm,Calm,-,N/A,,Clear,0,2012-10-27 19:35:00
2:55 PM,44.6,17.6,34,30.32,10.0,Calm,Calm,-,N/A,,Clear,0,2012-10-27 19:55:00
3:15 PM,44.6,17.6,34,30.32,10.0,Calm,Calm,-,N/A,,Clear,0,2012-10-27 20:15:00
3:35 PM,44.6,19.4,37,30.31,10.0,West,4.6,-,N/A,,Clear,260,2012-10-27 20:35:00
3:55 PM,44.6,19.4,37,30.31,10.0,Calm,Calm,-,N/A,,Clear,0,2012-10-27 20:55:00
4:15 PM,42.8,19.4,39,30.31,10.0,NW,3.5,-,N/A,,Clear,320,2012-10-27 21:15:00
4:35 PM,42.8,19.4,39,30.31,10.0,Calm,Calm,-,N/A,,Clear,0,2012-10-27 21:35:00
4:55 PM,42.8,19.4,39,30.31,10.0,Calm,Calm,-,N/A,,Clear,0,2012-10-27 21:55:00
5:15 PM,42.8,19.4,39,30.31,10.0,Calm,Calm,-,N/A,,Clear,0,2012-10-27 22:15:00
5:35 PM,41.0,21.2,45,30.31,10.0,Calm,Calm,-,N/A,,Clear,0,2012-10-27 22:35:00
5:55 PM,39.2,21.2,49,30.31,10.0,Calm,Calm,-,N/A,,Clear,0,2012-10-27 22:55:00
6:15 PM,37.4,23.0,56,30.31,10.0,Calm,Calm,-,N/A,,Clear,0,2012-10-27 23:15:00
6:35 PM,35.6,24.8,65,30.32,10.0,Calm,Calm,-,N/A,,Clear,0,2012-10-27 23:35:00
6:55 PM,33.8,24.8,70,30.32,10.0,Calm,Calm,-,N/A,,Clear,0,2012-10-27 23:55:00
7:15 PM,33.8,23.0,65,30.33,10.0,Calm,Calm,-,N/A,,Clear,0,2012-10-28 00:15:00
7:35 PM,32.0,24.8,75,30.33,10.0,North,3.5,-,N/A,,Clear,360,2012-10-28 00:35:00
7:55 PM,32.0,23.0,69,30.33,10.0,Calm,Calm,-,N/A,,Clear,0,2012-10-28 00:55:00
8:15 PM,30.2,23.0,75,30.33,10.0,North,3.5,-,N/A,,Clear,360,2012-10-28 01:15:00
8:35 PM,30.2,23.0,75,30.33,10.0,Calm,Calm,-,N/A,,Clear,0,2012-10-28 01:35:00
8:55 PM,30.2,23.0,75,30.34,10.0,Calm,Calm,-,N/A,,Clear,0,2012-10-28 01:55:00
9:15 PM,30.2,23.0,75,30.34,10.0,Calm,Calm,-,N/A,,Clear,0,2012-10-28 02:15:00
9:35 PM,28.4,24.8,86,30.34,10.0,Calm,Calm,-,N/A,,Clear,0,2012-10-28 02:35:00
9:55 PM,30.2,24.8,80,30.34,10.0,Calm,Calm,-,N/A,,Clear,0,2012-10-28 02:55:00
10:15 PM,30.2,24.8,80,30.35,10.0,North,4.6,-,N/A,,Clear,360,2012-10-28 03:15:00
10:35 PM,28.4,24.8,86,30.35,10.0,Calm,Calm,-,N/A,,Clear,0,2012-10-28 03:35:00
11:15 PM,28.4,24.8,86,30.35,10.0,Calm,Calm,-,N/A,,Clear,0,2012-10-28 04:15:00
11:35 PM,26.6,24.8,93,30.35,10.0,Calm,Calm,-,N/A,,Clear,0,2012-10-28 04:35:00
11:55 PM,26.6,24.8,93,30.35,10.0,Calm,Calm,-,N/A,,Clear,0,2012-10-28 04:55:00